Regional Weather Roundup
Issued by NWS Sioux Falls, SD

Home | Current Version | Previous Version | Text Only | Print | Product List | Glossary Off
Versions: 1 2 3 4 5 6 7 8 9 10 11 12 13 14 15 16 17 18 19 20 21 22 23 24 25 26 27 28 29 30 31 32 33 34 35 36 37 38 39 40 41 42 43 44 45 46 47 48 49 50

000
ASUS43 KFSD 011310
RWRFSD

WEATHER ROUNDUP FOR SE SOUTH DAKOTA/SW MINNESOTA/NW IOWA
NATIONAL WEATHER SERVICE SIOUX FALLS SD
700 AM CST SUN FEB 01 2015

NOTE: "FAIR" INDICATES FEW OR NO CLOUDS BELOW 12,000 FEET WITH NO
SIGNIFICANT WEATHER AND OR OBSTRUCTIONS TO VISIBILITY.


SDZ038>040-050-052>070-011400-
SOUTHEAST SOUTH DAKOTA

CITY           SKY/WX    TMP DP  RH WIND       PRES   REMARKS
CHAMBERLAIN    LGT SNOW   1  -4  80 N22G29    30.29R WCI -22
HURON          LGT SNOW   0  -5  79 N21G30    30.32R WCI -22
MADISON        LGT SNOW   3   3 100 N24G31    30.17R WCI -20
MITCHELL       LGT SNOW   3  -1  83 N21       30.28R FOG     WCI -18
SIOUX FALLS    LGT SNOW   8   3  80 N29G36    30.14R VSB 3/4 WCI -15
WINNER         LGT SNOW   4  -1  80 N24G32    30.29R VSB 1   WCI -19
YANKTON        CLOUDY   N/A N/A N/A N26G33    30.16R
$$

MNZ071-072-080-081-089-090-097-098-011400-
SOUTHWEST MINNESOTA

CITY           SKY/WX    TMP DP  RH WIND       PRES   REMARKS
FAIRMONT       CLOUDY    16  10  79 N18G28    30.05R WCI  -1
JACKSON        LGT SNOW  18  12  79 N26       30.06R WCI  -1
LUVERNE        LGT SNOW  14  10  85 N23G33    30.10R WCI  -5
MARSHALL       CLOUDY    10   1  67 N24G32    30.21R WCI -10
MONTEVIDEO     CLOUDY    10   1  67 NE24      30.26R WCI -10
PIPESTONE      LGT SNOW   9   3  78 N15G25    30.12R WCI  -8
REDWOOD FALLS  LGT SNOW  13   8  81 N10G21    30.20R WCI   0
TRACY          LGT SNOW  12   9  87 N22G28    30.18R WCI  -7
WINDOM         LGT SNOW  14  10  85 N25G32    30.10R WCI  -5
WORTHINGTON    CLOUDY    27   9  46 N20G32    30.07R WCI  13
$$

IAZ001>003-012>014-020>022-031-032-NEZ013-014-SDZ071-011400-
NORTHWEST IOWA

CITY           SKY/WX    TMP DP  RH WIND       PRES   REMARKS
CHEROKEE       LGT SNOW  18  16  93 N22G31    29.98R WCI   1
DENISON        LGT SNOW  21  19  93 NE26G36   29.85S WCI   4
ESTHERVILLE    LGT SNOW  15  13  91 N25       30.03  VSB 3/4 WCI  -4
LE MARS        LGT SNOW  18  16  93 N21G28    30.04R VSB 1   WCI   1
ORANGE CITY    LGT SNOW  18  14  86 NE20G29   30.02R WCI   1
SHELDON        LGT SNOW  16  14  93 N26G37    30.02R WCI  -3
SIOUX CITY     LGT SNOW  20  15  81 N24       30.03R WCI   3
SPENCER        LGT SNOW  17  13  84 N28G38    30.01R VSB 1   WCI  -2
STORM LAKE     LGT SNOW  18  16  93 NE28G41   29.93R VSB 3/4 WCI  -1
$$

ABBREVIATIONS USED IN REMARKS
   TC - TEMPERATURE IN CELSIUS
  WCI - WIND CHILL INDEX
   HX - HEAT INDEX
  VSB - VISIBILITY




USA.gov is the U.S. government's official web portal to all federal, state and local government web resources and services.